Location: Ellingshausen
(50.5460°N, 10.4723°E)
Time: 00:59:48
(UTC+00:00)

Cosmos 2074 Rocket - Pass Details

Date: 18 January 2026
Orbit: 965 x 986 km, 82.9° (Epoch: 18 February)

Event Time Altitude Azimuth Distance (km) Brightness Sun altitude
Rises 05:14:39 0° 205° (SSW) 3,684 6.9 -17.9°
Reaches altitude 10° 05:17:15 10° 210° (SSW) 2,739 6.2 -17.5°
Maximum altitude 05:23:21 51° 286° (WNW) 1,221 4.1 -16.5°
Drops below altitude 10° 05:29:29 10° 2° (N) 2,750 6.2 -15.6°
Sets 05:32:06 0° 8° (N) 3,700 7.0 -15.2°
